Terug naar catalogus

USA 474

ActiefMilitairVLEO
NORAD 62543·PAYLOAD·🇺🇸 United States

Gelanceerd Jan 10, 2025 vanaf Vandenberg Space Force Base

Loading…

Volgende Passages (komende 24 uur)

TLE

VerouderdSource: Mike McCants

Epoch: Aug 23, 2026, 20:16 UTC

1 62543U 25005M   26235.84488125 0.00000000  00000-0  00000-0 0    03
2 62543  70.0191 246.9440 0003000 150.5831 209.4169 14.96713429    02

Volg USA 474 in realtime met AllMySat

Download on the App Store